New version


Hourly Weather Veliky Novgorod

Today, 24 July, Saturday

Time Temperature Precipitation Wind Pressure Humidity
00:00 +16°C° 0 mm 1 mps 757 mmHg 65%
01:00 +15°C° 0 mm 1 mps 757 mmHg 66%
02:00 +15°C° 0 mm 1 mps 757 mmHg 67%
03:00 +15°C° 0 mm 1 mps 757 mmHg 68%
04:00 +15°C° 0 mm 1 mps 758 mmHg 69%
05:00 +15°C° 0 mm 1 mps 758 mmHg 70%
06:00 +16°C° 0 mm 1 mps 758 mmHg 64%
07:00 +18°C° 0 mm 1 mps 758 mmHg 58%
08:00 +20°C° 0 mm 1 mps 759 mmHg 53%
09:00 +20°C° 0 mm 1 mps 759 mmHg 48%
10:00 +21°C° 0 mm 1 mps 759 mmHg 42%
11:00 +21°C° 0 mm 2 mps 759 mmHg 37%
12:00 +23°C° 0 mm 2 mps 759 mmHg 36%
13:00 +23°C° 0 mm 2 mps 759 mmHg 36%
14:00 +23°C° 0 mm 2 mps 759 mmHg 35%
15:00 +23°C° 0 mm 2 mps 759 mmHg 39%
16:00 +21°C° 0 mm 2 mps 759 mmHg 44%
17:00 +21°C° 0 mm 2 mps 759 mmHg 48%
18:00 +20°C° 0 mm 2 mps 759 mmHg 53%
19:00 +19°C° 0 mm 2 mps 759 mmHg 58%
20:00 +18°C° 0 mm 2 mps 760 mmHg 64%
21:00 +17°C° 0 mm 2 mps 760 mmHg 65%
22:00 +15°C° 0 mm 1 mps 760 mmHg 67%
23:00 +14°C° 0 mm 1 mps 761 mmHg 69%

Tomorrow, 25 July, Sunday

Time Temperature Precipitation Wind Pressure Humidity
00:00 +13°C° 0 mm 1 mps 761 mmHg 69%
01:00 +13°C° 0 mm 1 mps 761 mmHg 69%
02:00 +12°C° 0 mm 1 mps 761 mmHg 69%
03:00 +13°C° 0 mm 1 mps 761 mmHg 69%
04:00 +13°C° 0 mm 1 mps 762 mmHg 69%
05:00 +12°C° 0 mm 0 mps 762 mmHg 69%
06:00 +15°C° 0 mm 1 mps 762 mmHg 62%
07:00 +18°C° 0 mm 1 mps 762 mmHg 55%
08:00 +21°C° 0 mm 1 mps 762 mmHg 49%
09:00 +22°C° 0 mm 1 mps 762 mmHg 45%
10:00 +24°C° 0 mm 1 mps 762 mmHg 41%
11:00 +25°C° 0 mm 1 mps 762 mmHg 37%
12:00 +26°C° 0 mm 1 mps 762 mmHg 36%
13:00 +26°C° 0 mm 2 mps 762 mmHg 35%
14:00 +27°C° 0 mm 2 mps 762 mmHg 34%
15:00 +26°C° 0 mm 2 mps 762 mmHg 37%
16:00 +26°C° 0 mm 2 mps 762 mmHg 41%
17:00 +25°C° 0 mm 1 mps 762 mmHg 44%
18:00 +24°C° 0 mm 1 mps 762 mmHg 51%
19:00 +22°C° 0 mm 1 mps 762 mmHg 58%
20:00 +20°C° 0 mm 1 mps 762 mmHg 65%
21:00 +19°C° 0 mm 2 mps 763 mmHg 64%
22:00 +19°C° 0 mm 2 mps 763 mmHg 64%
23:00 +18°C° 0 mm 2 mps 763 mmHg 64%

Day after tomorrow, 26 July, Monday

Time Temperature Precipitation Wind Pressure Humidity
00:00 +19°C° 0 mm 1 mps 763 mmHg 66%
01:00 +18°C° 0 mm 1 mps 763 mmHg 67%
02:00 +18°C° 0 mm 1 mps 763 mmHg 69%
03:00 +18°C° 0 mm 1 mps 764 mmHg 69%
04:00 +18°C° 0 mm 1 mps 764 mmHg 70%
05:00 +19°C° 0 mm 1 mps 764 mmHg 71%
06:00 +20°C° 0 mm 1 mps 764 mmHg 65%
07:00 +22°C° 0 mm 1 mps 764 mmHg 60%
08:00 +24°C° 0 mm 1 mps 764 mmHg 54%
09:00 +25°C° 0 mm 1 mps 764 mmHg 49%
10:00 +27°C° 0 mm 1 mps 764 mmHg 44%
11:00 +28°C° 0 mm 1 mps 764 mmHg 39%
12:00 +29°C° 0 mm 1 mps 764 mmHg 37%
13:00 +29°C° 0 mm 1 mps 764 mmHg 35%
14:00 +30°C° 0 mm 2 mps 763 mmHg 33%
15:00 +29°C° 0 mm 1 mps 763 mmHg 34%
16:00 +29°C° 0 mm 1 mps 763 mmHg 36%
17:00 +29°C° 0 mm 1 mps 763 mmHg 37%
18:00 +27°C° 0 mm 1 mps 763 mmHg 44%
19:00 +25°C° 0 mm 1 mps 763 mmHg 52%
20:00 +23°C° 0 mm 1 mps 763 mmHg 59%
21:00 +22°C° 0 mm 1 mps 763 mmHg 60%
22:00 +21°C° 0 mm 1 mps 763 mmHg 61%
23:00 +21°C° 0 mm 1 mps 764 mmHg 62%

27 July, Tuesday

Time Temperature Precipitation Wind Pressure Humidity
00:00 +20°C° 0 mm 1 mps 764 mmHg 66%
01:00 +19°C° 0 mm 1 mps 764 mmHg 70%
02:00 +19°C° 0 mm 1 mps 764 mmHg 74%
03:00 +19°C° 0 mm 1 mps 764 mmHg 74%
04:00 +19°C° 0 mm 1 mps 764 mmHg 74%
05:00 +20°C° 0 mm 1 mps 764 mmHg 74%
06:00 +21°C° 0 mm 1 mps 763 mmHg 69%
07:00 +23°C° 0 mm 1 mps 763 mmHg 64%
08:00 +25°C° 0 mm 1 mps 763 mmHg 59%
09:00 +26°C° 0 mm 1 mps 763 mmHg 53%
10:00 +28°C° 0 mm 1 mps 763 mmHg 47%
11:00 +30°C° 0 mm 1 mps 763 mmHg 41%
12:00 +30°C° 0 mm 1 mps 763 mmHg 39%
13:00 +30°C° 0 mm 2 mps 762 mmHg 37%
14:00 +31°C° 0 mm 2 mps 762 mmHg 35%
15:00 +30°C° 0 mm 2 mps 762 mmHg 36%
16:00 +30°C° 0 mm 2 mps 762 mmHg 37%
17:00 +30°C° 0 mm 1 mps 761 mmHg 38%
18:00 +28°C° 0 mm 1 mps 761 mmHg 45%
19:00 +26°C° 0 mm 1 mps 761 mmHg 51%
20:00 +24°C° 0 mm 1 mps 761 mmHg 58%
21:00 +23°C° 0 mm 1 mps 761 mmHg 59%
22:00 +21°C° 0 mm 2 mps 760 mmHg 60%
23:00 +21°C° 0 mm 2 mps 760 mmHg 61%

28 July, Wednesday

Time Temperature Precipitation Wind Pressure Humidity
00:00 +21°C° 0 mm 2 mps 760 mmHg 64%
01:00 +20°C° 0 mm 2 mps 760 mmHg 66%
02:00 +20°C° 0 mm 2 mps 760 mmHg 69%
03:00 +20°C° 0 mm 2 mps 760 mmHg 72%
04:00 +19°C° 0 mm 2 mps 759 mmHg 74%
05:00 +19°C° 0 mm 2 mps 759 mmHg 77%
06:00 +21°C° 0 mm 2 mps 759 mmHg 70%
07:00 +24°C° 0 mm 2 mps 759 mmHg 64%
08:00 +26°C° 0 mm 2 mps 758 mmHg 57%
09:00 +27°C° 0 mm 3 mps 758 mmHg 54%
10:00 +28°C° 0 mm 3 mps 758 mmHg 51%
11:00 +29°C° 0 mm 3 mps 758 mmHg 48%
12:00 +28°C° 0.1 mm 3 mps 757 mmHg 51%
13:00 +28°C° 0.1 mm 2 mps 757 mmHg 55%
14:00 +27°C° 0.1 mm 2 mps 757 mmHg 58%
15:00 +26°C° 0.3 mm 2 mps 757 mmHg 66%
16:00 +24°C° 0.3 mm 2 mps 757 mmHg 73%
17:00 +22°C° 0.3 mm 3 mps 756 mmHg 80%
18:00 +21°C° 0.6 mm 2 mps 756 mmHg 84%
19:00 +21°C° 0.6 mm 2 mps 756 mmHg 89%
20:00 +20°C° 0.6 mm 2 mps 756 mmHg 93%
21:00 +19°C° 0.2 mm 2 mps 756 mmHg 94%
22:00 +20°C° 0.2 mm 1 mps 756 mmHg 95%
23:00 +20°C° 0.2 mm 1 mps 756 mmHg 95%

29 July, Thursday

Time Temperature Precipitation Wind Pressure Humidity
00:00 +20°C° 0 mm 1 mps 756 mmHg 96%
01:00 +20°C° 0 mm 1 mps 755 mmHg 96%
02:00 +20°C° 0 mm 1 mps 755 mmHg 96%
03:00 +20°C° 0 mm 1 mps 755 mmHg 95%
04:00 +20°C° 0 mm 1 mps 755 mmHg 95%
05:00 +20°C° 0 mm 1 mps 755 mmHg 95%
06:00 +20°C° 0 mm 1 mps 755 mmHg 92%
07:00 +21°C° 0 mm 1 mps 755 mmHg 89%
08:00 +22°C° 0 mm 1 mps 755 mmHg 86%
09:00 +23°C° 0 mm 1 mps 755 mmHg 78%
10:00 +25°C° 0 mm 1 mps 755 mmHg 69%
11:00 +26°C° 0 mm 2 mps 754 mmHg 61%
12:00 +27°C° 0.4 mm 2 mps 754 mmHg 61%
13:00 +27°C° 0.4 mm 2 mps 754 mmHg 62%
14:00 +27°C° 0.4 mm 2 mps 754 mmHg 62%
15:00 +27°C° 0.3 mm 2 mps 754 mmHg 63%
16:00 +26°C° 0.3 mm 3 mps 754 mmHg 65%
17:00 +26°C° 0.3 mm 3 mps 753 mmHg 67%
18:00 +24°C° 0.8 mm 3 mps 754 mmHg 75%
19:00 +21°C° 0.8 mm 2 mps 754 mmHg 83%
20:00 +20°C° 0.8 mm 2 mps 754 mmHg 92%
21:00 +19°C° 0 mm 2 mps 754 mmHg 92%
22:00 +19°C° 0 mm 2 mps 754 mmHg 92%
23:00 +18°C° 0 mm 2 mps 754 mmHg 92%
Show more